Location: Unspecified
(0.0000°N, 0.0000°E)
Time: 09:10:58
(UTC+00:00)

Envisat - Pass Details

Date: 15 January 2018
Orbit: 764 x 766 km, 98.2° (Epoch: 22 April)

Event Time Altitude Azimuth Distance (km) Brightness Sun altitude
Rises 19:51:42 0° 164° (SSE) 3,228 6.3 -23.7°
Reaches altitude 10° 19:54:01 10° 162° (SSE) 2,300 5.5 -24.3°
Enters shadow 19:58:28 64° 126° (SE) 845 3.0 -25.3°
